CW8553 Weather Reports


time (UTC)temp
C
wind
direction
speed
KPH
gust
KPH
rain 1hr
cm
rain 24hr
cm
rain mn
cm
humidity
%
barometer
mb
20260505194543 14 0 0.0 0.0 0.00 0.00 0.00 82 1016.6
20260505193044 13 0 0.0 0.0 0.00 0.00 0.00 82 1016.4
20260505191542 13 0 0.0 0.0 0.00 0.00 0.00 82 1016.4
20260505190038 13 0 0.0 0.0 0.00 0.00 0.00 83 1016.4
20260505184540 13 0 0.0 0.0 0.00 0.00 0.00 83 1016.4
20260505183040 13 0 0.0 0.0 0.00 0.00 0.00 84 1016.5
20260505181543 13 0 0.0 0.0 0.00 0.00 0.00 84 1016.3
20260505180037 13 0 0.0 0.0 0.00 0.00 0.00 85 1016.2
20260505174535 13 0 0.0 0.0 0.00 0.00 0.00 85 1016.3
20260505173040 12 0 0.0 0.0 0.00 0.00 0.00 86 1016.3
20260505171537 12 0 0.0 0.0 0.00 0.00 0.00 86 1016.2
20260505170038 12 0 0.0 0.0 0.00 0.00 0.00 87 1016.1
20260505164535 12 0 0.0 0.0 0.00 0.00 0.00 86 1016.1
20260505163034 12 0 0.0 0.0 0.00 0.00 0.00 87 1016.1
20260505161543 12 0 0.0 0.0 0.00 0.00 0.00 86 1016.0
20260505153037 12 0 0.0 0.0 0.00 0.00 0.00 87 1015.7
20260505151535 12 0 0.0 0.0 0.00 0.00 0.00 87 1015.7
20260505124549 12 0 0.0 0.0 0.00 0.00 0.00 88 1014.2
20260505123041 12 0 0.0 0.0 0.00 0.00 0.00 88 1014.2
20260505121542 12 0 0.0 0.0 0.00 0.00 0.00 89 1014.1
20260505120039 12 0 0.0 0.0 0.00 0.00 0.00 89 1014.0
20260505114538 12 0 0.0 0.0 0.00 0.00 0.00 88 1014.0
20260505113043 12 0 0.0 0.0 0.00 0.00 0.00 88 1014.1
20260505111540 12 0 0.0 0.0 0.00 0.00 0.00 89 1013.9
20260505101548 11 0 0.0 0.0 0.00 0.00 0.00 90 1013.7
20260505100036 11 0 0.0 0.0 0.00 0.00 0.00 89 1013.6
20260505094539 11 0 0.0 0.0 0.00 0.00 0.00 90 1013.5
20260505093039 11 0 0.0 0.0 0.00 0.00 0.00 90 1013.4
20260505091538 11 0 0.0 0.0 0.00 0.00 0.00 90 1013.4
20260505090042 11 0 0.0 0.0 0.00 0.00 0.00 90 1013.3
20260505084548 11 0 0.0 0.0 0.00 0.00 0.00 90 1013.1
20260505083053 11 0 0.0 0.0 0.00 0.00 0.00 90 1013.2
20260505081538 11 0 0.0 0.0 0.00 0.00 0.00 90 1013.2
20260505080046 11 0 0.0 0.0 0.00 0.00 0.00 90 1013.1
20260505074537 12 0 0.0 0.0 0.00 0.00 0.00 89 1012.9
20260505073038 12 0 0.0 0.0 0.00 0.00 0.00 89 1012.8
20260505071545 12 0 0.0 0.0 0.00 0.00 0.00 89 1012.5
20260505070035 12 0 0.0 0.0 0.00 0.00 0.00 88 1012.3
20260505064540 12 0 0.0 0.0 0.00 0.00 0.00 88 1012.3
20260505063040 12 0 0.0 0.0 0.00 0.00 0.00 88 1012.3
20260505061538 12 0 0.0 0.0 0.00 0.00 0.00 87 1011.9
20260505060042 12 0 0.0 0.0 0.00 0.00 0.00 87 1011.7
20260505054546 12 0 0.0 0.0 0.00 0.00 0.00 86 1011.7
20260505053040 12 0 0.0 0.0 0.00 0.00 0.00 85 1011.6
20260505051537 13 0 0.0 0.0 0.00 0.00 0.00 85 1011.6
20260505041549 15 0 0.0 0.0 0.00 0.00 0.00 76 1010.8
20260505040039 16 0 0.0 0.0 0.00 0.00 0.00 74 1010.6
20260505034536 17 0 0.0 0.0 0.00 0.00 0.00 72 1010.4
20260505033039 17 0 0.0 0.0 0.00 0.00 0.00 70 1010.1
20260505031552 18 0 0.0 0.0 0.00 0.00 0.00 68 1010.0
20260505030042 19 0 0.0 0.0 0.00 0.00 0.00 65 1009.8
20260505024547 20 0 0.0 0.0 0.00 0.00 0.00 63 1009.7
20260505023042 21 0 0.0 0.0 0.00 0.00 0.00 61 1009.6
20260505021536 21 0 0.0 0.0 0.00 0.00 0.00 59 1009.6
20260505020035 22 0 0.0 0.0 0.00 0.00 0.00 56 1009.6
20260505014559 22 0 0.0 0.0 0.00 0.00 0.00 57 1009.7
20260505013038 23 0 0.0 0.0 0.00 0.00 0.00 57 1009.6
20260505011547 23 0 0.0 0.0 0.00 0.00 0.00 55 1009.6
20260505010037 23 0 0.0 0.0 0.00 0.00 0.00 56 1009.6
20260505004536 24 0 0.0 0.0 0.00 0.00 0.00 55 1009.6
20260505003039 24 0 0.0 0.0 0.00 0.00 0.00 53 1009.6
20260505001542 24 0 0.0 0.0 0.00 0.00 0.00 53 1009.6
20260505000037 25 0 0.0 0.0 0.00 0.00 0.00 51 1009.6
20260504234536 25 0 0.0 0.0 0.00 0.00 0.00 51 1009.6
20260504233040 25 0 0.0 0.0 0.00 0.00 0.00 52 1009.6
20260504231541 25 0 0.0 0.0 0.00 0.00 0.00 49 1009.6
20260504230046 26 0 0.0 0.0 0.00 0.00 0.00 48 1009.9
20260504224543 25 0 0.0 0.0 0.00 0.00 0.00 48 1010.2
20260504223037 25 0 0.0 0.0 0.00 0.00 0.00 45 1010.3
20260504221539 25 0 0.0 0.0 0.00 0.00 0.00 44 1010.4
20260504220035 25 0 0.0 0.0 0.00 0.00 0.00 47 1010.5
20260504214542 25 0 0.0 0.0 0.00 0.00 0.00 49 1010.6
20260504213039 25 0 0.0 0.0 0.00 0.00 0.00 53 1010.6
20260504211537 24 0 0.0 0.0 0.00 0.00 0.00 53 1010.7
20260504210053 23 0 0.0 0.0 0.00 0.00 0.00 55 1010.8
20260504204556 22 0 0.0 0.0 0.00 0.00 0.00 58 1010.8
20260504203044 22 0 0.0 0.0 0.00 0.00 0.00 59 1010.8
20260504201539 21 0 0.0 0.0 0.00 0.00 0.00 60 1010.7
20260504200038 21 0 0.0 0.0 0.00 0.00 0.00 59 1010.8